Regional Weather Roundup
Issued by NWS Little Rock, AR

Home | Current Version | Previous Version | Text Only | Print | Product List | Glossary On
Versions: 1 2 3 4 5 6 7 8 9 10 11 12 13 14 15 16 17 18 19 20 21 22 23 24 25 26 27 28
000
ASUS44 KLZK 251405
RWRLZK

WEATHER ROUNDUP FOR ARKANSAS
NATIONAL WEATHER SERVICE LITTLE ROCK AR
900 AM CDT SAT JUN 25 2016

NOTE: "FAIR" INDICATES FEW OR NO CLOUDS BELOW 12,000 FEET WITH NO
SIGNIFICANT WEATHER AND/OR OBSTRUCTIONS TO VISIBILITY.

ARZ001-003-010-029-251500-
NORTHWEST ARKANSAS

CITY           SKY/WX    TMP DP  RH WIND       PRES   REMARKS
FAYETTEVILLE   MOSUNNY   80  72  76 S12       30.11R
FORT SMITH     SUNNY     83  69  62 CALM      30.07R HX  86
HARRISON       SUNNY     82  70  66 VRB5      30.12S HX  86
BENTONVILLE    MOSUNNY   82  66  57 SW13      30.11S HX  85
ROGERS         MOSUNNY   82  69  64 SW14      30.11S HX  85
SILOAM SPGS    MOSUNNY   81  64  57 S8        30.11S
HIGHFILL       MOSUNNY   81  71  71 S10       30.10R HX  85
SPRINGDALE     SUNNY     81  70  69 S13       30.12S
$$

ARZ004-005-016-251500-
NORTH CENTRAL ARKANSAS

CITY           SKY/WX    TMP DP  RH WIND       PRES   REMARKS
BATESVILLE     SUNNY     84  73  70 W3        30.09S HX  91
FLIPPIN        MOSUNNY   81  72  74 CALM      30.08R
MTN HOME       MOSUNNY   80  73  79 S3        30.10R
$$

ARZ040-041-251500-
WEST CENTRAL ARKANSAS

CITY           SKY/WX    TMP DP  RH WIND       PRES   REMARKS
MENA           MOSUNNY   82  75  78 CALM      30.13R HX  89
MOUNT IDA      SUNNY     82  72  71 CALM      30.10R HX  87
$$

ARZ009-017-025-026-028-251500-
NORTHEAST ARKANSAS

CITY           SKY/WX    TMP DP  RH WIND       PRES   REMARKS
CORNING          N/A     82  79  89 S5        30.09S HX  93
JONESBORO      SUNNY     87  73  62 SW8       30.08S HX  94
NEWPORT        SUNNY     89  73  59 W7        30.10R HX  96
WALNUT RIDGE   SUNNY     84  73  70 SW8       30.08S HX  91
BLYTHEVILLE    SUNNY     87  76  69 SW6       30.09R HX  97
$$

ARZ022-023-033-042-044-251500-
CENTRAL ARKANSAS

CITY           SKY/WX    TMP DP  RH WIND       PRES   REMARKS
LITTLE ROCK    MOSUNNY   86  72  62 SW7       30.10R HX  92
N LITTLE ROCK    N/A     84  73  69 W3        30.07S HX  90
JACKSONVILLE   SUNNY     85  74  69 SW6       30.09S HX  92
SEARCY         SUNNY     83  78  85 SW3       30.11R HX  93
HOT SPRINGS    SUNNY     84  72  67 VRB3      30.11R HX  89
RUSSELLVILLE   SUNNY     82  73  74 VRB5      30.09R HX  87
$$

ARZ036-251500-
EAST ARKANSAS

CITY           SKY/WX    TMP DP  RH WIND       PRES   REMARKS
WEST MEMPHIS   SUNNY     86  74  67 VRB3      30.10R HX  94
$$

ARZ050-053-066-070-073-251500-
SOUTHWEST ARKANSAS

CITY           SKY/WX    TMP DP  RH WIND       PRES   REMARKS
ARKADELPHIA    FAIR      84  74  72 SW5       30.11R HX  91
CAMDEN         SUNNY     84  72  65 S5        30.11R HX  89
TEXARKANA      SUNNY     82  74  76 S7        30.10R HX  88
EL DORADO      SUNNY     83  75  77 S8        30.12R HX  90
DE QUEEN       SUNNY     81  75  82 SW3       30.08R HX  87
$$

ARZ056-057-069-251500-
SOUTHEAST ARKANSAS

CITY           SKY/WX    TMP DP  RH WIND       PRES   REMARKS
PINE BLUFF     SUNNY     83  72  69 W6        30.11R HX  88
STUTTGART      SUNNY     86  73  66 SW8       30.11R HX  93
MONTICELLO     SUNNY     85  73  67 W8        30.12R HX  91

$$






USA.gov is the U.S. government's official web portal to all federal, state and local government web resources and services.